SCP
0 -0 -0 -0 0 -0 -0 -0 -0 -0 -0 -0 -0 -0 -0 -0 -0 -0 -0 -0 -0 -0 -0 -0 -0 -0 -0 -0 -0 -0 -0 -0 -0 -0 -0 -0 -0 -0 -0 0 -0 0 -0
-0 0 0 -0 -0 -0 -0 -0 -0 -0 -0 -0 -0 -0 -0 -0 -0 -0 -0 -0 -0 -0 -0 -0 -0 -0 -0 -0 -0 -0 -0 -0 -0 -0 -0 -0 -0 -0 -0 -0 -0 -0 -0
-0 0 0 0 -0 -0 -0 -0 -0 -0 -0 0 -0 -0 -0 -0 -0 -0 -0 -0 -0 -0 -0 -0 -0 -0 -0 -0 -0 -0 -0 -0 -0 -0 -0 -0 0 0 0 -0 -0 -0 -0
-0 -0 -0 -0 -0 -0 -0 -0 -0 -0 0 0 -0 -0 -0 -0 -0 -0 -0 -0 -0 -0 -0 -0 -0 -0 -0 -0 -0 -0 -0 -0 -0 0 0 -0 -0 -0 -0 -0 -0 0 0
-0 -0 -0 -0 -0 -0 -0 -0 0 0 0 -0 -0 -0 -0 -0 -0 -0 -0 -0 -0 -0 -0 -0 -0 -0 -0 -0 -0 -0 -0 -0 0 0 0 0 0 0 0 0 0 0 0
-0 -0 -0 -0 -0 -0 -0 -0 -0 -0 -0 -0 -0 -0 -0 -0 -0 -0 -0 -0 -0 -0 -0 -0 -0 -0 -0 -0 -0 -0 0 0 -0 0 0 0 0 0 0 0 0 0 0
0 -0 -0 0 0 0 0 -0 -0 -0 -0 -0 -0 -0 -0 -0 -0 -0 -0 -0 -0 -0 -0 -0 -0 -0 -0 -0 -0 -0 0 0 0 0 0 0 0 0 0 0 0 0 0
0 -0 -0 0 0 0 0 -0 -0 -0 -0 -0 -0 -0 -0 -0 -0 -0 -0 -0 -0 -0 -0 -0 -0 -0 -0 -0 0 0 0 -0 0 0 0 0 0 0 0 0 0 0 0
-0 0 -0 -0 -0 0 0 0 -0 0 -0 -0 -0 -0 -0 -0 -0 -0 -0 -0 -0 -0 -0 -0 0 0 0 0 0 0 0 0 0 0 0 0 0 0 0 0 0 0 0
0 0 0 -0 -0 -0 0 0 0 0 0 0 0 0 0 -0 0 0 0 -0 -0 -0 0 0 0 0 0 0 0 0 0 0 0 0 0 0 0 0 0 0 0 0 0
0 0 0 0 -0 -0 0 0 0 0 0 0 0 0 0 0 0 0 0 0 0 0 0 0 0 0 0 0 0 0 -0 0 0 0 0 0 0 0 0 0 0 0 0
0 0 0 0 0 0 0 -0 0 0 0 0 0 0 0 0 0 0 0 0 0 0 0 0 0 0 0 0 0 0 0 0 0 0 0 0 0 0 0 0 0 0 0
0 0 0 0 0 0 0 0 0 0 0 0 0 0 0 0 0 0 0 0 0 0 0 0 0 0 0 0 0 0 0 0 0 0 0 0 0 0 0 0 0 0 0
0 0 0 0 0 0 0 0 0 0 0 0 0 0 0 0 0 0 0 0 0 0 0 0 0 0 0 0 0 0 0 0 0 0 0 0 0 0 0 0 0 0 0
0 0 0 0 0 0 0 0 0 0 0 0 0 0 0 0 0 0 0 0 0 0 0 0 0 0 0 0 0 0 0 0 0 0 0 0 0 0 0 0 0 0 0
-0 0 0 0 0 0 0 0 0 0 0 0 0 0 0 0 0 0 0 0 0 0 0 0 0 0 0 0 0 0 0 0 0 0 0 0 0 0 0 0 0 0 0
-0 0 0 0 0 0 0 0 0 0 0 0 0 0 0 0 0 0 0 0 0 0 0 0 0 0 0 0 0 0 0 0 0 0 0 0 0 0 0 0 0 0 0
0 0 0 0 0 0 0 0 0 0 0 0 0 0 0 0 0 0 0 0 0 0 0 0 0 0 0 0 0 0 0 0 0 0 0 0 0 0 0 0 0 0 0
0 0 0 0 -0 0 0 0 0 0 0 0 0 0 0 0 0 0 0 0 0 0 0 0 0 0 0 0 0 0 0 0 0 0 0 0 0 0 0 0 0 0 0
0 0 0 0 0 0 0 0 0 0 0 0 0 0 0 0 0 0 0 0 0 0 0 0 0 0 0 0 0 0 0 0 0 0 0 0 0 0 0 0 0 0 0
0 0 0 0 0 0 0 0 0 0 0 0 0 0 0 0 0 0 0 0 0 0 0 0 0 0 0 0 0 0 0 0 0 0 0 0 0 0 0 0 0 0 0
0 0 0 0 0 0 0 0 0 0 0 0 0 0 0 0 0 0 0 0 0 0 0 0 0 0 0 0 0 0 0 0 0 0 0 0 0 0 0 0 0 0 0
0 0 0 0 0 0 0 0 0 0 0 0 0 0 0 0 0 0 0 0 0 0 0 0 0 0 0 0 0 0 0 0 0 0 0 0 0 0 0 0 0 0 0
0 0 0 0 0 0 0 0 0 0 0 0 0 0 0 0 0 0 0 0 0 0 0 0 0 0 0 0 0 0 0 0 0 0 0 0 0 0 0 0 0 0 0
0 0 0 0 0 0 0 0 0 0 0 0 0 0 0 0 0 0 0 0 0 0 0 0 0 0 0 0 0 0 0 0 0 0 0 0 0 0 0 0 0 0 0
0 0 0 0 0 0 0 0 0 0 0 0 0 0 0 0 0 0 0 0 0 0 0 0 0 0 0 0 0 0 0 0 0 0 0 0 0 0 0 0 0 0 0
Wind_Speed_500mb
29 23 22 19 18 17 15 13 10 6 2 2 4 2 8 17 27 25 29 29 27 31 30 31 31 31 32 33 34 36 35 37 38 38 39 38 37 36 36 42 39 32 33
29 25 23 20 18 14 11 10 8 4 2 1 5 17 22 27 27 25 31 28 27 29 28 31 29 30 33 37 36 35 34 33 36 37 39 43 40 38 37 33 28 31 35
29 25 25 23 16 14 13 10 8 5 4 9 17 23 25 28 26 27 32 25 31 33 26 17 29 33 36 34 33 32 31 34 37 40 39 30 30 32 30 29 35 22 20
30 26 25 25 17 16 13 9 7 11 9 21 21 24 27 28 25 28 33 26 29 30 24 24 32 34 33 31 29 28 25 27 34 38 28 25 21 26 24 18 14 10 11
32 25 26 24 18 18 14 10 11 12 19 22 22 24 27 25 25 27 34 27 30 29 25 28 33 31 29 29 28 27 28 24 24 35 32 34 30 20 13 7 12 18 17
32 23 24 23 19 18 14 10 9 9 12 15 22 21 23 24 24 28 31 27 27 29 26 26 27 28 27 26 25 25 25 27 30 25 27 24 18 8 13 17 22 18 19
31 22 24 23 20 19 17 13 8 3 9 9 20 19 20 21 23 24 28 26 25 26 26 22 25 23 22 22 21 21 21 21 21 20 21 15 9 10 19 21 16 21 23
27 26 23 24 23 21 18 17 12 5 3 6 6 15 16 20 20 21 23 22 22 23 24 22 20 19 18 18 19 19 17 17 18 17 17 10 6 14 21 16 20 22 20
28 25 25 26 26 25 24 23 16 10 6 6 8 8 16 18 19 19 20 20 20 20 20 18 16 15 15 16 17 19 19 14 15 13 10 10 14 17 15 15 19 19 20
29 26 26 27 28 30 29 23 18 14 9 6 10 12 15 18 19 20 20 20 19 18 15 13 13 13 12 12 14 16 16 15 12 8 5 5 17 7 11 12 15 18 19
35 31 29 29 31 30 28 26 21 15 12 10 11 11 12 16 17 16 15 15 14 12 11 9 8 7 10 10 12 14 15 12 7 3 2 5 13 3 13 10 15 18 18
41 37 34 30 32 32 31 30 26 20 16 14 15 15 15 15 16 15 14 13 13 10 6 3 2 4 6 7 10 12 11 16 10 4 3 5 7 5 15 14 19 17 16
39 37 35 33 32 31 32 33 31 27 21 20 20 20 20 19 18 18 18 16 14 13 9 5 2 2 3 5 7 10 12 14 13 8 10 10 8 12 20 19 21 16 14
46 40 35 34 33 33 33 33 32 29 25 22 22 24 24 23 22 21 20 19 17 14 10 7 7 7 6 6 6 9 10 13 13 16 19 21 15 11 21 22 22 17 17
48 46 43 38 36 35 36 36 35 32 28 26 25 26 25 24 24 23 22 20 17 15 13 12 12 10 10 10 9 10 10 10 13 17 18 20 19 16 24 25 23 22 20
47 49 47 45 40 39 38 37 35 35 33 31 30 28 27 26 26 26 24 21 20 19 18 16 15 13 14 15 15 15 16 14 17 20 20 23 24 27 24 26 27 26 22
47 47 51 50 47 44 42 40 41 40 38 36 35 33 31 30 28 27 27 24 24 23 20 18 18 17 17 19 18 17 17 15 18 23 25 28 31 33 22 27 29 27 24
47 51 49 53 54 51 47 46 44 45 43 42 40 39 37 35 32 32 30 29 27 25 24 23 22 21 20 21 18 20 17 19 20 25 27 23 24 27 27 28 28 28 28
48 51 52 56 57 55 54 51 48 46 47 46 45 45 43 41 38 36 33 31 32 31 30 29 28 26 22 22 22 25 24 26 27 26 27 30 29 27 29 29 25 27 29
50 54 56 58 61 58 57 56 55 53 52 52 49 50 47 46 43 40 38 37 37 37 35 34 32 32 30 27 28 30 32 36 39 38 37 38 38 35 33 36 35 32 31
54 61 64 63 65 67 68 68 66 66 60 59 56 52 48 48 48 47 44 42 44 44 40 37 37 38 35 34 32 36 38 39 45 44 42 37 35 39 45 46 45 42 39
54 62 66 68 71 71 73 74 71 67 67 64 60 59 52 51 50 51 49 48 48 47 46 46 45 43 40 41 37 40 36 38 46 28 29 31 38 45 50 53 52 49 46
68 64 67 69 71 71 71 75 75 73 74 72 71 69 64 60 55 53 53 52 51 52 53 51 51 48 45 46 45 40 22 19 24 34 35 38 46 50 54 57 56 56 54
73 65 63 68 72 71 74 79 81 81 82 80 78 75 71 68 63 60 55 54 54 55 57 56 52 52 52 52 55 54 56 56 38 33 38 43 52 59 61 63 62 63 64
83 76 70 69 74 76 79 78 78 81 79 75 75 76 75 73 68 67 64 62 60 57 58 57 56 58 61 60 58 57 59 58 64 69 57 53 51 62 68 72 73 75 75
75 87 84 80 77 77 80 80 81 79 77 75 74 75 73 74 74 71 70 69 66 67 63 60 58 61 64 66 64 63 64 59 56 63 65 78 76 73 71 83 83 83 67
Wind_Direction_500mb
168 159 147 144 148 149 143 138 134 131 122 12 341 84 135 118 119 113 102 100 97 95 96 93 112 90 90 89 86 82 79 83 84 79 75 75 69 68 65 66 64 60 56
166 161 154 153 154 165 151 137 126 118 127 83 113 116 113 109 112 117 113 112 102 98 104 93 87 91 86 82 82 78 76 72 73 78 79 63 57 55 67 72 57 64 75
168 162 157 156 159 161 144 136 112 80 63 120 120 113 113 111 108 113 111 107 96 97 106 85 90 89 88 85 80 75 71 71 75 74 67 77 57 54 63 73 83 82 79
166 163 161 160 166 160 145 126 104 91 100 122 114 114 112 112 113 117 114 111 101 111 118 94 92 89 87 80 74 71 72 81 81 73 56 61 73 75 68 69 65 33 9
164 165 170 165 168 166 155 130 102 81 114 116 114 116 117 120 120 119 120 121 112 111 102 97 96 92 86 79 73 68 70 72 79 81 70 75 90 83 65 25 359 343 344
165 171 173 171 177 172 165 155 136 96 115 118 127 122 124 128 123 124 123 119 116 116 110 103 100 89 82 76 70 66 67 71 76 74 81 77 75 47 350 333 330 350 12
173 180 178 178 183 180 173 171 171 138 105 120 132 138 131 130 118 119 126 129 119 114 111 107 88 84 75 71 67 62 62 70 83 83 81 82 52 351 341 337 355 21 27
179 178 187 184 185 181 176 182 190 177 138 113 158 139 135 127 125 119 125 125 118 113 111 106 97 84 72 62 53 49 57 71 81 93 115 93 9 338 339 351 19 25 33
181 186 188 188 191 180 183 194 205 207 199 156 173 174 146 135 132 127 127 129 123 121 116 110 98 84 67 51 46 46 50 69 83 100 105 53 329 326 346 1 14 23 25
187 190 192 189 190 184 188 198 201 202 192 197 188 190 163 149 145 142 139 143 145 135 123 96 74 65 61 48 39 39 42 57 80 113 122 347 330 35 15 4 16 18 21
191 193 197 190 185 188 190 192 197 200 205 203 191 185 173 160 155 152 153 149 143 134 121 99 74 62 47 40 26 20 20 25 65 143 155 296 319 16 341 21 11 13 18
194 196 195 197 193 192 196 195 197 200 200 199 199 189 183 176 172 167 166 163 159 155 142 120 91 60 43 22 15 16 20 10 49 77 310 293 340 323 327 360 4 5 13
201 203 202 198 201 204 204 204 206 202 202 204 200 194 194 193 188 185 183 182 184 184 192 217 273 310 334 0 6 10 14 15 23 11 309 342 300 294 308 347 357 357 1
208 210 210 211 211 212 215 214 218 215 209 204 204 201 201 201 199 197 197 198 200 205 219 237 243 256 290 311 330 349 343 352 337 337 331 339 337 280 285 328 337 341 338
217 215 216 216 216 222 226 223 222 221 220 215 211 206 205 209 208 207 208 210 213 216 228 239 248 262 280 286 293 308 305 324 316 319 320 321 328 276 287 306 315 321 318
222 222 220 220 223 225 230 234 233 227 223 223 220 215 215 212 215 216 217 218 221 226 233 239 253 264 270 275 284 294 290 298 306 310 310 312 314 306 288 298 301 304 304
226 227 228 227 225 227 230 234 237 235 231 227 225 222 221 219 217 222 223 226 229 235 243 249 255 262 268 275 274 282 294 295 303 307 308 309 308 309 311 308 302 302 296
227 229 230 230 229 230 230 232 237 240 238 234 230 228 227 224 223 224 228 230 236 242 246 251 257 263 263 271 266 277 289 287 309 308 316 316 325 319 335 325 311 302 297
231 231 229 229 230 232 233 233 235 239 242 239 236 233 231 230 229 229 231 235 238 243 246 250 255 257 262 270 272 279 280 282 282 290 296 303 305 309 312 316 311 300 292
240 234 231 231 231 231 234 235 234 236 238 238 237 237 234 234 233 234 235 236 240 245 247 251 257 263 262 265 275 280 285 287 282 284 285 295 297 294 293 292 294 290 290
245 240 233 231 231 230 229 231 232 234 237 238 238 241 239 237 236 235 237 238 241 246 250 254 255 257 262 263 274 279 286 283 282 282 283 288 293 288 281 281 284 287 288
256 244 239 234 232 231 232 234 235 238 240 243 244 244 243 242 240 239 241 241 243 247 250 252 255 258 258 263 267 275 282 288 288 281 277 292 294 292 289 285 284 285 285
251 243 238 237 236 235 234 234 236 238 241 242 243 242 240 241 241 241 243 245 247 248 250 252 254 256 260 269 260 258 262 263 278 285 281 284 290 291 289 290 289 286 283
248 246 243 240 238 237 235 233 236 238 239 241 242 244 242 242 242 244 245 247 249 250 252 254 256 259 259 256 265 258 260 265 271 284 286 284 287 284 285 289 290 290 283
250 248 250 244 239 237 235 236 238 239 242 244 245 246 244 245 244 245 246 248 251 253 255 257 258 257 259 261 258 264 269 268 265 265 275 283 281 290 292 295 295 292 286
255 251 247 244 239 237 238 238 238 242 241 240 242 245 245 244 245 245 247 248 250 253 255 259 261 261 260 263 263 262 262 265 268 271 272 284 283 287 280 291 297 300 304
Wind_Speed_850mb
29 23 22 19 18 17 15 13 10 6 2 2 4 2 8 17 27 25 29 29 27 31 30 31 31 31 32 33 34 36 35 37 38 38 39 38 37 36 36 42 39 32 33
29 25 23 20 18 14 11 10 8 4 2 1 5 17 22 27 27 25 31 28 27 29 28 31 29 30 33 37 36 35 34 33 36 37 39 43 40 38 37 33 28 31 35
29 25 25 23 16 14 13 10 8 5 4 9 17 23 25 28 26 27 32 25 31 33 26 17 29 33 36 34 33 32 31 34 37 40 39 30 30 32 30 29 35 22 20
30 26 25 25 17 16 13 9 7 11 9 21 21 24 27 28 25 28 33 26 29 30 24 24 32 34 33 31 29 28 25 27 34 38 28 25 21 26 24 18 14 10 11
32 25 26 24 18 18 14 10 11 12 19 22 22 24 27 25 25 27 34 27 30 29 25 28 33 31 29 29 28 27 28 24 24 35 32 34 30 20 13 7 12 18 17
32 23 24 23 19 18 14 10 9 9 12 15 22 21 23 24 24 28 31 27 27 29 26 26 27 28 27 26 25 25 25 27 30 25 27 24 18 8 13 17 22 18 19
31 22 24 23 20 19 17 13 8 3 9 9 20 19 20 21 23 24 28 26 25 26 26 22 25 23 22 22 21 21 21 21 21 20 21 15 9 10 19 21 16 21 23
27 26 23 24 23 21 18 17 12 5 3 6 6 15 16 20 20 21 23 22 22 23 24 22 20 19 18 18 19 19 17 17 18 17 17 10 6 14 21 16 20 22 20
28 25 25 26 26 25 24 23 16 10 6 6 8 8 16 18 19 19 20 20 20 20 20 18 16 15 15 16 17 19 19 14 15 13 10 10 14 17 15 15 19 19 20
29 26 26 27 28 30 29 23 18 14 9 6 10 12 15 18 19 20 20 20 19 18 15 13 13 13 12 12 14 16 16 15 12 8 5 5 17 7 11 12 15 18 19
35 31 29 29 31 30 28 26 21 15 12 10 11 11 12 16 17 16 15 15 14 12 11 9 8 7 10 10 12 14 15 12 7 3 2 5 13 3 13 10 15 18 18
41 37 34 30 32 32 31 30 26 20 16 14 15 15 15 15 16 15 14 13 13 10 6 3 2 4 6 7 10 12 11 16 10 4 3 5 7 5 15 14 19 17 16
39 37 35 33 32 31 32 33 31 27 21 20 20 20 20 19 18 18 18 16 14 13 9 5 2 2 3 5 7 10 12 14 13 8 10 10 8 12 20 19 21 16 14
46 40 35 34 33 33 33 33 32 29 25 22 22 24 24 23 22 21 20 19 17 14 10 7 7 7 6 6 6 9 10 13 13 16 19 21 15 11 21 22 22 17 17
48 46 43 38 36 35 36 36 35 32 28 26 25 26 25 24 24 23 22 20 17 15 13 12 12 10 10 10 9 10 10 10 13 17 18 20 19 16 24 25 23 22 20
47 49 47 45 40 39 38 37 35 35 33 31 30 28 27 26 26 26 24 21 20 19 18 16 15 13 14 15 15 15 16 14 17 20 20 23 24 27 24 26 27 26 22
47 47 51 50 47 44 42 40 41 40 38 36 35 33 31 30 28 27 27 24 24 23 20 18 18 17 17 19 18 17 17 15 18 23 25 28 31 33 22 27 29 27 24
47 51 49 53 54 51 47 46 44 45 43 42 40 39 37 35 32 32 30 29 27 25 24 23 22 21 20 21 18 20 17 19 20 25 27 23 24 27 27 28 28 28 28
48 51 52 56 57 55 54 51 48 46 47 46 45 45 43 41 38 36 33 31 32 31 30 29 28 26 22 22 22 25 24 26 27 26 27 30 29 27 29 29 25 27 29
50 54 56 58 61 58 57 56 55 53 52 52 49 50 47 46 43 40 38 37 37 37 35 34 32 32 30 27 28 30 32 36 39 38 37 38 38 35 33 36 35 32 31
54 61 64 63 65 67 68 68 66 66 60 59 56 52 48 48 48 47 44 42 44 44 40 37 37 38 35 34 32 36 38 39 45 44 42 37 35 39 45 46 45 42 39
54 62 66 68 71 71 73 74 71 67 67 64 60 59 52 51 50 51 49 48 48 47 46 46 45 43 40 41 37 40 36 38 46 28 29 31 38 45 50 53 52 49 46
68 64 67 69 71 71 71 75 75 73 74 72 71 69 64 60 55 53 53 52 51 52 53 51 51 48 45 46 45 40 22 19 24 34 35 38 46 50 54 57 56 56 54
73 65 63 68 72 71 74 79 81 81 82 80 78 75 71 68 63 60 55 54 54 55 57 56 52 52 52 52 55 54 56 56 38 33 38 43 52 59 61 63 62 63 64
83 76 70 69 74 76 79 78 78 81 79 75 75 76 75 73 68 67 64 62 60 57 58 57 56 58 61 60 58 57 59 58 64 69 57 53 51 62 68 72 73 75 75
75 87 84 80 77 77 80 80 81 79 77 75 74 75 73 74 74 71 70 69 66 67 63 60 58 61 64 66 64 63 64 59 56 63 65 78 76 73 71 83 83 83 67
Wind_Direction_850mb
168 159 147 144 148 149 143 138 134 131 122 12 341 84 135 118 119 113 102 100 97 95 96 93 112 90 90 89 86 82 79 83 84 79 75 75 69 68 65 66 64 60 56
166 161 154 153 154 165 151 137 126 118 127 83 113 116 113 109 112 117 113 112 102 98 104 93 87 91 86 82 82 78 76 72 73 78 79 63 57 55 67 72 57 64 75
168 162 157 156 159 161 144 136 112 80 63 120 120 113 113 111 108 113 111 107 96 97 106 85 90 89 88 85 80 75 71 71 75 74 67 77 57 54 63 73 83 82 79
166 163 161 160 166 160 145 126 104 91 100 122 114 114 112 112 113 117 114 111 101 111 118 94 92 89 87 80 74 71 72 81 81 73 56 61 73 75 68 69 65 33 9
164 165 170 165 168 166 155 130 102 81 114 116 114 116 117 120 120 119 120 121 112 111 102 97 96 92 86 79 73 68 70 72 79 81 70 75 90 83 65 25 359 343 344
165 171 173 171 177 172 165 155 136 96 115 118 127 122 124 128 123 124 123 119 116 116 110 103 100 89 82 76 70 66 67 71 76 74 81 77 75 47 350 333 330 350 12
173 180 178 178 183 180 173 171 171 138 105 120 132 138 131 130 118 119 126 129 119 114 111 107 88 84 75 71 67 62 62 70 83 83 81 82 52 351 341 337 355 21 27
179 178 187 184 185 181 176 182 190 177 138 113 158 139 135 127 125 119 125 125 118 113 111 106 97 84 72 62 53 49 57 71 81 93 115 93 9 338 339 351 19 25 33
181 186 188 188 191 180 183 194 205 207 199 156 173 174 146 135 132 127 127 129 123 121 116 110 98 84 67 51 46 46 50 69 83 100 105 53 329 326 346 1 14 23 25
187 190 192 189 190 184 188 198 201 202 192 197 188 190 163 149 145 142 139 143 145 135 123 96 74 65 61 48 39 39 42 57 80 113 122 347 330 35 15 4 16 18 21
191 193 197 190 185 188 190 192 197 200 205 203 191 185 173 160 155 152 153 149 143 134 121 99 74 62 47 40 26 20 20 25 65 143 155 296 319 16 341 21 11 13 18
194 196 195 197 193 192 196 195 197 200 200 199 199 189 183 176 172 167 166 163 159 155 142 120 91 60 43 22 15 16 20 10 49 77 310 293 340 323 327 360 4 5 13
201 203 202 198 201 204 204 204 206 202 202 204 200 194 194 193 188 185 183 182 184 184 192 217 273 310 334 0 6 10 14 15 23 11 309 342 300 294 308 347 357 357 1
208 210 210 211 211 212 215 214 218 215 209 204 204 201 201 201 199 197 197 198 200 205 219 237 243 256 290 311 330 349 343 352 337 337 331 339 337 280 285 328 337 341 338
217 215 216 216 216 222 226 223 222 221 220 215 211 206 205 209 208 207 208 210 213 216 228 239 248 262 280 286 293 308 305 324 316 319 320 321 328 276 287 306 315 321 318
222 222 220 220 223 225 230 234 233 227 223 223 220 215 215 212 215 216 217 218 221 226 233 239 253 264 270 275 284 294 290 298 306 310 310 312 314 306 288 298 301 304 304
226 227 228 227 225 227 230 234 237 235 231 227 225 222 221 219 217 222 223 226 229 235 243 249 255 262 268 275 274 282 294 295 303 307 308 309 308 309 311 308 302 302 296
227 229 230 230 229 230 230 232 237 240 238 234 230 228 227 224 223 224 228 230 236 242 246 251 257 263 263 271 266 277 289 287 309 308 316 316 325 319 335 325 311 302 297
231 231 229 229 230 232 233 233 235 239 242 239 236 233 231 230 229 229 231 235 238 243 246 250 255 257 262 270 272 279 280 282 282 290 296 303 305 309 312 316 311 300 292
240 234 231 231 231 231 234 235 234 236 238 238 237 237 234 234 233 234 235 236 240 245 247 251 257 263 262 265 275 280 285 287 282 284 285 295 297 294 293 292 294 290 290
245 240 233 231 231 230 229 231 232 234 237 238 238 241 239 237 236 235 237 238 241 246 250 254 255 257 262 263 274 279 286 283 282 282 283 288 293 288 281 281 284 287 288
256 244 239 234 232 231 232 234 235 238 240 243 244 244 243 242 240 239 241 241 243 247 250 252 255 258 258 263 267 275 282 288 288 281 277 292 294 292 289 285 284 285 285
251 243 238 237 236 235 234 234 236 238 241 242 243 242 240 241 241 241 243 245 247 248 250 252 254 256 260 269 260 258 262 263 278 285 281 284 290 291 289 290 289 286 283
248 246 243 240 238 237 235 233 236 238 239 241 242 244 242 242 242 244 245 247 249 250 252 254 256 259 259 256 265 258 260 265 271 284 286 284 287 284 285 289 290 290 283
250 248 250 244 239 237 235 236 238 239 242 244 245 246 244 245 244 245 246 248 251 253 255 257 258 257 259 261 258 264 269 268 265 265 275 283 281 290 292 295 295 292 286
255 251 247 244 239 237 238 238 238 242 241 240 242 245 245 244 245 245 247 248 250 253 255 259 261 261 260 263 263 262 262 265 268 271 272 284 283 287 280 291 297 300 304